This demonstration page uses our WeatherBlox Daily Observations layout. Learn more.

Left ArrowRight Arrow

53.62937, 11.41316

Hourly Observations for July 4, 2022

Temp ( °F °C ) Dew Point ( °F °C ) Humidity (%) Winds ( mph kmh ) Pressure ( in mb ) Visibility ( mi km ) Precip ( " mm )
12:20 am 00:20 Mostly Cloudy 59 15 57 14 94 94 VRB 2 4 30.03 1017 30 48 N/A
12:50 am 00:50 Partly Cloudy 57 14 57 14 100 100 W 3 6 30.03 1017 30 48 N/A
1:20 am 01:20 Mostly Cloudy 57 14 55 13 94 94 W 3 6 30.03 1017 30 48 N/A
1:50 am 01:50 Mostly Clear 57 14 55 13 94 94 WSW 3 6 30.03 1017 30 48 N/A
2:20 am 02:20 Mostly Clear 57 14 55 13 94 94 W 3 6 30.03 1017 30 48 N/A
2:50 am 02:50 Mostly Clear 55 13 54 12 94 94 VRB 2 4 30.03 1017 30 48 N/A
3:20 am 03:20 Mostly Clear 55 13 54 12 94 94 W 3 6 30.03 1017 30 48 N/A
3:50 am 03:50 Mostly Clear 55 13 54 12 94 94 WSW 3 6 30.03 1017 30 48 N/A
4:20 am 04:20 Mostly Clear 55 13 54 12 94 94 VRB 2 4 30.03 1017 30 48 N/A
4:50 am 04:50 Mostly Clear 55 13 54 12 94 94 VRB 2 4 30.03 1017 5 8 N/A
5:20 am 05:20 Mostly Sunny 54 12 54 12 100 100 VRB 1 2 30.03 1017 0 1 N/A
5:50 am 05:50 Partly Cloudy 55 13 55 13 100 100 W 3 6 30.03 1017 1 2 N/A
6:20 am 06:20 Mostly Sunny 57 14 55 13 94 94 VRB 2 4 30.03 1017 7 11 N/A
6:50 am 06:50 Mostly Sunny 59 15 57 14 94 94 VRB 2 4 30.06 1018 7 11 N/A
7:20 am 07:20 Mostly Sunny 59 15 55 13 88 88 W 6 9 30.06 1018 7 11 N/A
7:50 am 07:50 Mostly Sunny 61 16 55 13 83 83 W 5 7 30.06 1018 30 48 N/A
8:20 am 08:20 Mostly Sunny 63 17 55 13 77 77 W 6 9 30.06 1018 30 48 N/A
8:50 am 08:50 Partly Cloudy 64 18 55 13 73 73 W 7 11 30.06 1018 30 48 N/A
9:20 am 09:20 Partly Cloudy 64 18 54 12 68 68 W 9 15 30.06 1018 30 48 N/A
9:50 am 09:50 Partly Cloudy 64 18 54 12 68 68 W 7 11 30.06 1018 30 48 N/A
10:20 am 10:20 Partly Cloudy 66 19 54 12 64 64 W 8 13 30.06 1018 30 48 N/A
10:50 am 10:50 Partly Cloudy 68 20 54 12 60 60 W 8 13 30.06 1018 30 48 N/A
11:20 am 11:20 Partly Cloudy 68 20 50 10 53 53 W 9 15 30.06 1018 30 48 N/A
11:50 am 11:50 Partly Cloudy 70 21 54 12 57 57 VRB 8 13 30.06 1018 30 48 N/A
12:20 pm 12:20 Partly Cloudy 70 21 52 11 53 53 VRB 9 15 30.06 1018 30 48 N/A
12:50 pm 12:50 Partly Cloudy 68 20 52 11 56 56 W 7 11 30.06 1018 30 48 N/A
1:20 pm 13:20 Partly Cloudy 68 20 50 10 53 53 VRB 9 15 30.06 1018 30 48 N/A
1:50 pm 13:50 Partly Cloudy 70 21 52 11 53 53 VRB 9 15 30.06 1018 30 48 N/A
2:20 pm 14:20 Partly Cloudy 73 23 50 10 44 44 VRB 7 11 30.06 1018 30 48 N/A
2:50 pm 14:50 Mostly Cloudy 70 21 50 10 50 50 W 10 17 30.03 1017 30 48 N/A
3:20 pm 15:20 Mostly Sunny 72 22 52 11 50 50 W 10 17 30.03 1017 30 48 N/A
3:50 pm 15:50 Mostly Sunny 73 23 50 10 44 44 W 10 17 30.03 1017 7 11 N/A
4:20 pm 16:20 Mostly Sunny 70 21 50 10 50 50 W 9 15 30.03 1017 7 11 N/A
4:50 pm 16:50 Mostly Sunny 72 22 54 12 53 53 WNW 9 15 30.03 1017 7 11 N/A
5:20 pm 17:20 Mostly Sunny 70 21 52 11 53 53 W 8 13 30.03 1017 7 11 N/A
5:50 pm 17:50 Mostly Sunny 72 22 54 12 53 53 WNW 8 13 30.03 1017 7 11 N/A
6:20 pm 18:20 Partly Cloudy 72 22 54 12 53 53 W 7 11 30.03 1017 30 48 N/A
6:50 pm 18:50 Mostly Sunny 70 21 52 11 53 53 WNW 10 17 30.03 1017 30 48 N/A
7:20 pm 19:20 Mostly Sunny 70 21 54 12 57 57 WNW 12 19 30.03 1017 30 48 N/A
7:50 pm 19:50 Mostly Sunny 68 20 54 12 60 60 NW 12 19 30.03 1017 7 11 N/A
8:20 pm 20:20 Mostly Sunny 66 19 52 11 60 60 WNW 12 19 30.06 1018 7 11 N/A
8:50 pm 20:50 Mostly Sunny 64 18 52 11 64 64 WNW 9 15 30.06 1018 7 11 N/A
9:20 pm 21:20 Mostly Sunny 63 17 52 11 68 68 WNW 6 9 30.06 1018 30 48 N/A
9:50 pm 21:50 Mostly Clear 61 16 50 10 68 68 W 3 6 30.06 1018 30 48 N/A
10:20 pm 22:20 Mostly Clear 59 15 50 10 72 72 VRB 2 4 30.09 1019 30 48 N/A
10:50 pm 22:50 Mostly Clear 59 15 50 10 72 72 VRB 2 4 30.09 1019 30 48 N/A
11:20 pm 23:20 Mostly Clear 57 14 48 9 72 72 WSW 3 6 30.09 1019 30 48 N/A
11:50 pm 23:50 Mostly Clear 55 13 48 9 77 77 VRB 2 4 30.09 1019 30 48 N/A

Powered by AerisWeather